Regional Weather Roundup
Issued by NWS

Home | Current Version | Previous Version | Graphics & Text | Print | Product List | Glossary On
Versions: 1 2 3 4 5 6 7 8 9 10 11 12 13 14 15 16 17 18 19 20 21 22 23 24 25 26 27 28 29 30 31 32 33 34 35 36 37 38 39 40 41 42 43 44 45 46 47 48 49 50
000
ASUS43 KBIS 281502
RWRND

NORTH DAKOTA REGIONAL WEATHER ROUNDUP
NATIONAL WEATHER SERVICE BISMARCK ND
1000 AM CDT TUE MAR 28 2017

NOTE: "FAIR" INDICATES FEW OR NO CLOUDS BELOW 12,000 FEET WITH NO
SIGNIFICANT WEATHER AND/OR OBSTRUCTIONS TO VISIBILITY.


NDZ001>003-009>011-017-281600-
NORTHWEST NORTH DAKOTA

CITY           SKY/WX    TMP DP  RH WIND       PRES   REMARKS
WILLISTON      PTSUNNY   40  36  86 NE5       30.07R
MINOT          FOG       35  35 100 E7        30.12S VSB 1/4
MINOT AFB      FOG       34  34  99 SE12      30.11F VSB 1/2
$$

NDZ018>021-031>035-040>046-281600-
SOUTHWEST NORTH DAKOTA

CITY           SKY/WX    TMP DP  RH WIND       PRES   REMARKS
BISMARCK       FOG       35  34  96 E8        30.13R VSB 1/2
DICKINSON      CLOUDY    35  32  88 NE5       30.05R
GARRISON         N/A     34  34 100 SE7       30.11R
HETTINGER ARPT CLOUDY    42  34  73 SE5       30.07R
$$

NDZ004>008-012>016-024-026-027-054-281600-
NORTHEAST NORTH DAKOTA

CITY           SKY/WX    TMP DP  RH WIND       PRES   REMARKS
GRAND FORKS    CLOUDY    37  34  89 N12       30.18R
GRND FRKS AFB  CLOUDY    36  34  92 N10       30.18S
DEVILS LAKE    CLOUDY    35  31  85 E12       30.17R
$$

NDZ022-023-025-028>030-036>039-047>053-281600-
SOUTHEAST NORTH DAKOTA

CITY           SKY/WX    TMP DP  RH WIND       PRES   REMARKS
FARGO          FOG       34  34 100 NE5       30.17R VSB 1/4
JAMESTOWN      CLOUDY    34  34 100 E5        30.13S FOG
$$




USA.gov is the U.S. government's official web portal to all federal, state and local government web resources and services.